Language: 


Des rapports , des résumés tant et plus, au choix de chacun....


Données statistiques de la station
Quotidien Rapport Mars 24, 2017 Unités:  Anglais    Métrique   les deux
« Précédent Jour
Suivant Jour »
Quotidien Hebdomadaire Mensuel Annuel Actuel
  Haut: Bas: Moyen:
Température: 60.3 °F 44.1 °F 50.7 °F
Pt de rosée: 46.6 °F 39.6 °F 42.4 °F
Humidité: 94 % 52 % 74 %
Vitesse du vent: 16.6 mph 0 mph 8.3 mph
Rafales: 18.1 mph - -
Vent:- - ENE
Pression: 30.4 in 30.1 in -
Précipitation: 0 in    
Historical Graphs
 
 
Données statistiques pour Mars 24, 2017
Heure Température Point de rosée Pression Vent Vitesse du vent Refales Humidité Pluie (taux horaire)
00:00 50.5 °F 40.6 °F 30.1 in East 9.8 mph 16.8 mph 69 % 0 in
00:05 50.4 °F 40.6 °F 30.1 in East 6.3 mph 13 mph 69 % 0 in
00:10 50.2 °F 40.5 °F 30.1 in East 10.1 mph 13 mph 69 % 0 in
00:15 50.2 °F 40.5 °F 30.1 in East 13 mph 14.5 mph 69 % 0 in
00:20 50.2 °F 40.8 °F 30.1 in East 5.8 mph 14.5 mph 70 % 0 in
00:25 50 °F 40.6 °F 30.1 in East 14.1 mph 14.1 mph 70 % 0 in
00:30 50 °F 40.6 °F 30.1 in ENE 8.5 mph 14.1 mph 70 % 0 in
00:35 49.8 °F 40.5 °F 30.1 in East 8.5 mph 12.8 mph 70 % 0 in
00:40 49.8 °F 40.5 °F 30.1 in NE 8.7 mph 15.7 mph 70 % 0 in
00:45 49.6 °F 40.6 °F 30.1 in ENE 9.8 mph 15.7 mph 71 % 0 in
00:50 49.5 °F 40.5 °F 30.1 in ENE 8.1 mph 11.2 mph 71 % 0 in
00:55 49.3 °F 40.6 °F 30.1 in East 8.5 mph 13.4 mph 72 % 0 in
01:00 49.1 °F 40.5 °F 30.1 in NE 10.3 mph 13.4 mph 72 % 0 in
01:05 49.1 °F 40.5 °F 30.1 in East 5.8 mph 12.5 mph 72 % 0 in
01:10 48.9 °F 40.3 °F 30.1 in East 8.1 mph 11 mph 72 % 0 in
01:15 48.9 °F 40.3 °F 30.1 in ENE 7.8 mph 12.5 mph 72 % 0 in
01:20 48.7 °F 40.5 °F 30.1 in NE 7.8 mph 12.5 mph 73 % 0 in
01:25 48.7 °F 40.5 °F 30.1 in NE 7.8 mph 11.9 mph 73 % 0 in
01:30 48.7 °F 40.5 °F 30.1 in ENE 5.6 mph 13.6 mph 73 % 0 in
01:35 48.7 °F 40.5 °F 30.1 in NE 10.1 mph 12.5 mph 73 % 0 in
01:40 48.6 °F 40.6 °F 30.1 in NE 10.3 mph 12.5 mph 74 % 0 in
01:46 48.6 °F 40.6 °F 30.1 in NE 11 mph 13.2 mph 74 % 0 in
01:51 48.6 °F 40.6 °F 30.1 in ENE 10.7 mph 13.2 mph 74 % 0 in
01:56 48.6 °F 40.6 °F 30.1 in ENE 9.8 mph 12.8 mph 74 % 0 in
02:01 48.6 °F 41 °F 30.1 in ENE 10.7 mph 11.9 mph 75 % 0 in
02:06 48.6 °F 41 °F 30.1 in NE 10.5 mph 12.8 mph 75 % 0 in
02:11 48.6 °F 41 °F 30.1 in East 8.7 mph 12.8 mph 75 % 0 in
02:16 48.4 °F 40.8 °F 30.1 in NNE 7.2 mph 11 mph 75 % 0 in
02:21 48.4 °F 40.8 °F 30.1 in NE 11.9 mph 11.9 mph 75 % 0 in
02:26 48.4 °F 40.8 °F 30.1 in ENE 12.5 mph 13.2 mph 75 % 0 in
02:31 48.2 °F 41 °F 30.1 in ENE 13 mph 13.4 mph 76 % 0 in
02:36 48.2 °F 41 °F 30.1 in NE 11 mph 13.4 mph 76 % 0 in
02:41 48.2 °F 41 °F 30.1 in NNE 10.7 mph 17.4 mph 76 % 0 in
02:46 48 °F 40.8 °F 30.1 in East 6.7 mph 18.1 mph 76 % 0 in
02:51 48 °F 41.2 °F 30.1 in ENE 10.5 mph 18.1 mph 77 % 0 in
02:56 47.8 °F 41 °F 30.1 in NE 7.4 mph 13 mph 77 % 0 in
03:01 47.7 °F 41.2 °F 30.1 in East 8.1 mph 13 mph 78 % 0 in
03:06 47.7 °F 41.2 °F 30.1 in ENE 7.8 mph 7.8 mph 78 % 0 in
03:11 47.5 °F 41 °F 30.1 in ENE 8.5 mph 12.8 mph 78 % 0 in
03:16 47.3 °F 41.2 °F 30.1 in ENE 8.5 mph 12.8 mph 79 % 0 in
03:21 47.3 °F 41.2 °F 30.1 in East 10.1 mph 10.5 mph 79 % 0 in
03:26 47.3 °F 41.5 °F 30.1 in NE 11 mph 11 mph 80 % 0 in
03:31 47.1 °F 41.5 °F 30.1 in ENE 8.1 mph 13.2 mph 81 % 0 in
03:36 47.1 °F 41.5 °F 30.1 in NE 12.3 mph 13.2 mph 81 % 0 in
03:41 46.9 °F 41.7 °F 30.1 in ENE 10.5 mph 15.2 mph 82 % 0 in
03:46 46.9 °F 41.7 °F 30.1 in NE 10.7 mph 15.2 mph 82 % 0 in
03:51 46.9 °F 41.7 °F 30.1 in NE 10.3 mph 12.8 mph 82 % 0 in
03:56 46.8 °F 41.5 °F 30.1 in East 6.3 mph 11 mph 82 % 0 in
04:01 46.8 °F 41.9 °F 30.1 in NNE 8.1 mph 10.7 mph 83 % 0 in
04:06 46.8 °F 41.9 °F 30.1 in East 11.4 mph 13.4 mph 83 % 0 in
04:11 46.6 °F 41.7 °F 30.1 in ENE 6.3 mph 13.4 mph 83 % 0 in
04:16 46.6 °F 41.5 °F 30.1 in NE 9.6 mph 12.8 mph 83 % 0 in
04:21 46.6 °F 41.9 °F 30.1 in ENE 11 mph 13.2 mph 84 % 0 in
04:26 46.6 °F 41.9 °F 30.2 in ENE 8.1 mph 13.2 mph 84 % 0 in
04:31 46.2 °F 41.7 °F 30.2 in ENE 7.6 mph 13 mph 84 % 0 in
04:36 46 °F 41.5 °F 30.2 in ENE 6.3 mph 11 mph 84 % 0 in
04:41 46 °F 41.9 °F 30.2 in East 3.8 mph 11.2 mph 85 % 0 in
04:46 45.9 °F 41.7 °F 30.2 in East 9.8 mph 11.2 mph 85 % 0 in
04:51 45.9 °F 41.7 °F 30.2 in ENE 6.5 mph 10.5 mph 85 % 0 in
04:56 45.9 °F 41.7 °F 30.2 in ENE 7.6 mph 10.5 mph 86 % 0 in
05:01 45.7 °F 41.5 °F 30.2 in NE 7.8 mph 10.5 mph 86 % 0 in
05:06 45.3 °F 41.5 °F 30.2 in ENE 7.8 mph 10.5 mph 86 % 0 in
05:07 45.3 °F 41.7 °F 30.2 in ENE 7.8 mph 10.5 mph 87 % 0 in
05:12 45.1 °F 41.5 °F 30.2 in ENE 7.4 mph 11.2 mph 87 % 0 in
05:17 45.1 °F 41.7 °F 30.2 in East 5.6 mph 11.2 mph 88 % 0 in
05:22 45.1 °F 41.4 °F 30.2 in NE 6.3 mph 10.7 mph 87 % 0 in
05:27 45.1 °F 41.7 °F 30.2 in ENE 4.9 mph 8.7 mph 88 % 0 in
05:32 45 °F 41.5 °F 30.2 in NE 10.1 mph 10.1 mph 88 % 0 in
05:37 45 °F 41.7 °F 30.2 in ENE 9.6 mph 11 mph 89 % 0 in
05:42 44.8 °F 41.7 °F 30.2 in NE 8.1 mph 11 mph 89 % 0 in
05:47 44.4 °F 41.7 °F 30.2 in ENE 6.9 mph 9.8 mph 90 % 0 in
05:52 44.4 °F 41.7 °F 30.2 in NE 6.5 mph 9.8 mph 90 % 0 in
05:57 44.2 °F 41.5 °F 30.2 in ENE 5.8 mph 9.8 mph 90 % 0 in
06:02 44.2 °F 41.5 °F 30.2 in NE 8.7 mph 11 mph 90 % 0 in
06:07 44.2 °F 41.9 °F 30.2 in ENE 5.4 mph 12.5 mph 91 % 0 in
06:12 44.2 °F 41.9 °F 30.2 in East 5.8 mph 12.5 mph 91 % 0 in
06:17 44.2 °F 42.1 °F 30.2 in NE 6.5 mph 10.1 mph 92 % 0 in
06:22 44.2 °F 42.1 °F 30.2 in East 7.6 mph 9.8 mph 92 % 0 in
06:27 44.2 °F 42.3 °F 30.2 in ENE 7.2 mph 9.8 mph 92 % 0 in
06:32 44.2 °F 42.1 °F 30.2 in NE 8.5 mph 8.7 mph 92 % 0 in
06:37 44.2 °F 42.3 °F 30.2 in ENE 6.5 mph 9.6 mph 93 % 0 in
06:42 44.1 °F 42.1 °F 30.2 in East 4.3 mph 9.6 mph 93 % 0 in
06:47 44.1 °F 41.7 °F 30.2 in East 7.8 mph 7.8 mph 92 % 0 in
06:53 44.2 °F 42.1 °F 30.2 in ESE 6 mph 7.8 mph 92 % 0 in
06:58 44.2 °F 42.3 °F 30.2 in ENE 5.8 mph 8.1 mph 93 % 0 in
07:03 44.2 °F 42.3 °F 30.2 in ENE 4.7 mph 8.1 mph 93 % 0 in
07:07 44.1 °F 42.1 °F 30.2 in East 4.9 mph 7.6 mph 93 % 0 in
07:13 44.1 °F 42.1 °F 30.2 in NE 6.3 mph 8.5 mph 93 % 0 in
07:18 44.1 °F 42.1 °F 30.2 in East 7.4 mph 8.5 mph 93 % 0 in
07:22 44.2 °F 42.3 °F 30.2 in ENE 4 mph 7.8 mph 93 % 0 in
07:28 44.2 °F 42.4 °F 30.2 in ENE 7.4 mph 8.5 mph 93 % 0 in
07:32 44.2 °F 42.4 °F 30.2 in NE 8.1 mph 9.8 mph 93 % 0 in
07:37 44.4 °F 43 °F 30.2 in NE 6.5 mph 9.8 mph 94 % 0 in
07:43 44.4 °F 43 °F 30.2 in ENE 5.6 mph 9.8 mph 94 % 0 in
07:48 44.4 °F 43 °F 30.2 in ENE 7.4 mph 7.8 mph 94 % 0 in
07:53 44.8 °F 43.2 °F 30.2 in East 6 mph 8.7 mph 94 % 0 in
07:58 44.8 °F 43.2 °F 30.2 in NE 11 mph 11 mph 94 % 0 in
08:02 44.8 °F 43.2 °F 30.2 in ENE 7.8 mph 11 mph 94 % 0 in
08:07 44.8 °F 43.2 °F 30.2 in East 6 mph 9.4 mph 94 % 0 in
08:12 45 °F 43.3 °F 30.2 in NE 5.6 mph 8.7 mph 94 % 0 in
08:17 45 °F 43.3 °F 30.2 in NE 8.7 mph 10.5 mph 94 % 0 in
08:22 45.1 °F 43.3 °F 30.2 in ENE 7.6 mph 10.7 mph 94 % 0 in
08:28 45.1 °F 43.3 °F 30.2 in ENE 8.9 mph 12.5 mph 94 % 0 in
08:32 45.1 °F 43.5 °F 30.2 in NE 5.6 mph 12.5 mph 94 % 0 in
08:37 45.1 °F 43.5 °F 30.2 in ENE 8.7 mph 10.5 mph 94 % 0 in
08:42 45.3 °F 43.9 °F 30.2 in ENE 9.8 mph 10.7 mph 94 % 0 in
08:47 45.7 °F 44.1 °F 30.2 in ENE 7.4 mph 10.7 mph 94 % 0 in
08:52 45.9 °F 44.1 °F 30.2 in NE 6.5 mph 10.1 mph 94 % 0 in
08:58 45.9 °F 44.2 °F 30.2 in NE 6.5 mph 8.7 mph 94 % 0 in
09:03 46 °F 44.2 °F 30.2 in ENE 8.5 mph 10.1 mph 93 % 0 in
09:08 46.2 °F 44.4 °F 30.3 in ENE 9.6 mph 11 mph 93 % 0 in
09:13 46.6 °F 44.4 °F 30.3 in ENE 8.1 mph 11 mph 92 % 0 in
09:18 46.9 °F 44.8 °F 30.3 in ENE 6.5 mph 10.7 mph 92 % 0 in
09:23 47.1 °F 44.8 °F 30.3 in ENE 5.8 mph 12.8 mph 91 % 0 in
09:28 47.5 °F 45 °F 30.3 in East 8.7 mph 14.8 mph 91 % 0 in
09:29 47.7 °F 45.1 °F 30.3 in ENE 10.1 mph 14.8 mph 91 % 0 in
09:34 48 °F 45.3 °F 30.3 in ENE 6.5 mph 14.8 mph 90 % 0 in
09:39 48 °F 45 °F 30.2 in East 9.6 mph 13.2 mph 89 % 0 in
09:44 48.4 °F 45 °F 30.2 in ENE 6.5 mph 13.2 mph 88 % 0 in
09:49 48.9 °F 45.1 °F 30.2 in ENE 9.8 mph 12.1 mph 87 % 0 in
09:54 49.3 °F 45.3 °F 30.3 in NE 6 mph 10.7 mph 86 % 0 in
09:59 49.8 °F 45.5 °F 30.3 in NE 7.6 mph 12.3 mph 85 % 0 in
10:04 49.8 °F 45.1 °F 30.3 in NE 7.6 mph 13.2 mph 84 % 0 in
10:09 49.8 °F 45 °F 30.3 in ENE 5.8 mph 13.2 mph 83 % 0 in
10:14 50.2 °F 45.5 °F 30.3 in East 10.7 mph 11.4 mph 84 % 0 in
10:19 50.9 °F 45.9 °F 30.3 in East 9.4 mph 13.2 mph 83 % 0 in
10:24 51.4 °F 45.9 °F 30.3 in ENE 10.1 mph 13.2 mph 81 % 0 in
10:29 51.1 °F 45.1 °F 30.3 in East 11 mph 14.5 mph 80 % 0 in
10:34 51.3 °F 45.3 °F 30.3 in ENE 15.7 mph 15.7 mph 80 % 0 in
10:39 51.8 °F 45.9 °F 30.3 in NE 8.1 mph 15.7 mph 80 % 0 in
10:44 51.3 °F 44.6 °F 30.3 in East 5.4 mph 13 mph 78 % 0 in
10:49 51.3 °F 45 °F 30.3 in ENE 8.5 mph 12.8 mph 79 % 0 in
10:54 51.6 °F 45.3 °F 30.3 in East 6.5 mph 12.8 mph 79 % 0 in
10:59 52 °F 45.7 °F 30.3 in NE 8.1 mph 10.7 mph 79 % 0 in
11:04 52.5 °F 46 °F 30.3 in ENE 7.6 mph 10.5 mph 79 % 0 in
11:09 52.5 °F 46 °F 30.3 in East 5.8 mph 11 mph 78 % 0 in
11:14 52.5 °F 45.7 °F 30.3 in East 10.5 mph 12.5 mph 77 % 0 in
11:19 52.9 °F 45.5 °F 30.3 in NE 5.8 mph 12.5 mph 76 % 0 in
11:24 52.9 °F 45.5 °F 30.3 in NNE 8.1 mph 12.5 mph 76 % 0 in
11:29 53.1 °F 45.7 °F 30.3 in NE 8.5 mph 13 mph 76 % 0 in
11:34 53.2 °F 45.3 °F 30.3 in NE 10.5 mph 13 mph 75 % 0 in
11:39 53.2 °F 45.3 °F 30.3 in ENE 9.6 mph 12.1 mph 74 % 0 in
11:44 53.8 °F 45.7 °F 30.3 in ENE 10.1 mph 13.6 mph 74 % 0 in
11:49 54.1 °F 45.3 °F 30.3 in NNE 12.8 mph 17.4 mph 72 % 0 in
11:54 54.9 °F 46 °F 30.3 in NE 10.5 mph 17.4 mph 72 % 0 in
11:59 55.2 °F 45.7 °F 30.3 in NE 6.5 mph 13.2 mph 70 % 0 in
12:04 55 °F 45.1 °F 30.3 in ENE 6.5 mph 13.2 mph 69 % 0 in
12:09 55.6 °F 45.5 °F 30.3 in ENE 8.7 mph 12.8 mph 69 % 0 in
12:14 55.6 °F 45.1 °F 30.3 in East 8.7 mph 12.8 mph 68 % 0 in
12:19 55.8 °F 45.9 °F 30.3 in East 5.4 mph 12.5 mph 69 % 0 in
12:24 56.1 °F 46 °F 30.3 in East 10.3 mph 12.8 mph 69 % 0 in
12:29 56.3 °F 46.2 °F 30.3 in ENE 8.9 mph 12.8 mph 69 % 0 in
12:34 56.1 °F 45.7 °F 30.3 in NE 9.6 mph 10.7 mph 68 % 0 in
12:39 55.6 °F 44.8 °F 30.3 in NE 9.6 mph 11 mph 67 % 0 in
12:44 56.1 °F 45.7 °F 30.3 in NE 10.5 mph 12.5 mph 68 % 0 in
12:49 57.4 °F 46.6 °F 30.3 in NE 8.7 mph 12.5 mph 67 % 0 in
12:55 57 °F 45.9 °F 30.3 in NE 8.1 mph 12.1 mph 66 % 0 in
13:00 57.7 °F 46.6 °F 30.3 in ENE 7.6 mph 12.1 mph 66 % 0 in
13:05 57.4 °F 45.7 °F 30.3 in NE 8.5 mph 12.8 mph 65 % 0 in
13:10 56.8 °F 44.8 °F 30.3 in East 7.8 mph 12.8 mph 64 % 0 in
13:15 57.9 °F 45.9 °F 30.3 in NE 11 mph 12.5 mph 64 % 0 in
13:20 58.5 °F 45.9 °F 30.3 in ENE 8.1 mph 12.5 mph 63 % 0 in
13:25 59 °F 46.4 °F 30.3 in ESE 3.6 mph 12.3 mph 63 % 0 in
13:30 59.7 °F 46.6 °F 30.3 in ENE 4.9 mph 10.3 mph 62 % 0 in
13:35 59.4 °F 45 °F 30.3 in NNE 9.8 mph 11 mph 59 % 0 in
13:40 58.3 °F 43.5 °F 30.3 in ENE 9.6 mph 13 mph 58 % 0 in
13:45 57.7 °F 43.5 °F 30.3 in NE 6.3 mph 13 mph 59 % 0 in
13:50 58.6 °F 45.1 °F 30.3 in ENE 5.4 mph 10.5 mph 61 % 0 in
13:55 59.2 °F 44.8 °F 30.3 in East 6.3 mph 10.3 mph 59 % 0 in
14:00 59.9 °F 45.1 °F 30.3 in East 8.1 mph 10.7 mph 58 % 0 in
14:05 59.7 °F 44.4 °F 30.3 in East 7.6 mph 12.1 mph 57 % 0 in
14:10 59.2 °F 43.9 °F 30.3 in NE 10.7 mph 12.1 mph 57 % 0 in
14:15 59.5 °F 43.9 °F 30.3 in East 11.2 mph 12.8 mph 56 % 0 in
14:20 59.2 °F 43 °F 30.3 in East 7.6 mph 14.3 mph 55 % 0 in
14:25 59.7 °F 43.5 °F 30.3 in East 7.8 mph 14.3 mph 55 % 0 in
14:30 60.1 °F 43.9 °F 30.3 in NNE 9.8 mph 12.3 mph 55 % 0 in
14:35 60.1 °F 43.9 °F 30.3 in ENE 6.3 mph 14.3 mph 55 % 0 in
14:40 60.1 °F 44.2 °F 30.3 in NNE 10.3 mph 14.3 mph 56 % 0 in
14:45 59.9 °F 43.2 °F 30.3 in ENE 7.4 mph 15.4 mph 54 % 0 in
14:50 60.1 °F 43.3 °F 30.3 in ENE 13.2 mph 15.4 mph 54 % 0 in
14:55 59.2 °F 42.1 °F 30.2 in NNE 12.3 mph 15.4 mph 53 % 0 in
15:00 59.5 °F 43 °F 30.2 in ENE 10.3 mph 15.4 mph 54 % 0 in
15:05 60.1 °F 43.3 °F 30.2 in NE 6.9 mph 13.2 mph 54 % 0 in
15:10 60.3 °F 43.5 °F 30.3 in NE 12.8 mph 17.2 mph 54 % 0 in
15:15 59.4 °F 41.7 °F 30.3 in ENE 10.5 mph 17.2 mph 52 % 0 in
15:20 59 °F 41.4 °F 30.3 in NE 8.7 mph 13.6 mph 52 % 0 in
15:25 58.6 °F 41.2 °F 30.3 in East 10.5 mph 13.2 mph 52 % 0 in
15:30 59.2 °F 42.1 °F 30.3 in NE 7.8 mph 11 mph 53 % 0 in
15:35 59.2 °F 41.5 °F 30.3 in ENE 12.8 mph 13 mph 52 % 0 in
15:40 59.2 °F 42.1 °F 30.3 in NE 10.7 mph 13.6 mph 53 % 0 in
15:45 59 °F 41.9 °F 30.3 in NNE 14.8 mph 14.8 mph 53 % 0 in
15:50 58.8 °F 42.6 °F 30.3 in NE 9.6 mph 14.8 mph 55 % 0 in
15:55 59.4 °F 43.5 °F 30.3 in NE 9.2 mph 13 mph 56 % 0 in
16:00 59.2 °F 43.5 °F 30.3 in NE 10.1 mph 13 mph 56 % 0 in
16:05 58.6 °F 42.1 °F 30.3 in NE 13.2 mph 13.2 mph 54 % 0 in
16:10 58.6 °F 42.4 °F 30.3 in NE 12.5 mph 15.2 mph 55 % 0 in
16:15 58.8 °F 42.6 °F 30.3 in NNE 13 mph 15.2 mph 55 % 0 in
16:20 59.2 °F 43.5 °F 30.3 in NE 10.5 mph 14.1 mph 56 % 0 in
16:25 58.8 °F 41.7 °F 30.3 in NE 7.6 mph 15.2 mph 53 % 0 in
16:30 59 °F 42.4 °F 30.3 in NE 10.7 mph 15.2 mph 54 % 0 in
16:35 58.8 °F 42.3 °F 30.3 in NE 10.1 mph 15.2 mph 54 % 0 in
16:40 58.6 °F 41.5 °F 30.3 in ENE 8.9 mph 15.2 mph 53 % 0 in
16:45 58.6 °F 42.1 °F 30.3 in NE 9.8 mph 14.3 mph 54 % 0 in
16:51 58.3 °F 42.3 °F 30.3 in NNE 13 mph 13.2 mph 55 % 0 in
16:56 58.1 °F 42.1 °F 30.3 in NNE 12.8 mph 13.2 mph 55 % 0 in
17:01 58.3 °F 42.3 °F 30.3 in NE 10.3 mph 12.8 mph 55 % 0 in
17:03 58.1 °F 41.5 °F 30.3 in NE 10.7 mph 15.4 mph 54 % 0 in
17:08 57.9 °F 41.4 °F 30.3 in NNE 10.1 mph 15.4 mph 54 % 0 in
17:13 57.7 °F 41.2 °F 30.3 in NNE 10.7 mph 15.4 mph 54 % 0 in
17:18 57.4 °F 40.8 °F 30.3 in NE 10.3 mph 13 mph 54 % 0 in
17:23 57 °F 40.6 °F 30.3 in NE 16.6 mph 16.6 mph 54 % 0 in
17:24 57 °F 40.6 °F 30.3 in NNE 10.3 mph 16.6 mph 54 % 0 in
17:29 57 °F 40.6 °F 30.3 in NE 13.2 mph 17.7 mph 54 % 0 in
17:34 56.8 °F 40.5 °F 30.3 in NE 12.1 mph 17.7 mph 54 % 0 in
17:39 56.7 °F 40.6 °F 30.3 in NE 13.2 mph 16.1 mph 55 % 0 in
17:44 56.3 °F 41.4 °F 30.3 in NE 7.8 mph 16.1 mph 57 % 0 in
17:49 56.3 °F 41.4 °F 30.3 in NE 14.5 mph 14.5 mph 57 % 0 in
17:54 56.3 °F 41.4 °F 30.3 in NE 8.5 mph 14.5 mph 57 % 0 in
17:55 56.3 °F 41.4 °F 30.3 in NE 9.6 mph 14.5 mph 57 % 0 in
18:00 55.9 °F 41 °F 30.3 in NE 12.5 mph 14.5 mph 57 % 0 in
18:05 55.8 °F 40.8 °F 30.3 in NNE 9.8 mph 15.2 mph 57 % 0 in
18:10 55.8 °F 40.8 °F 30.3 in NE 10.7 mph 15.2 mph 57 % 0 in
18:15 55.6 °F 40.6 °F 30.3 in NE 9.8 mph 15.4 mph 57 % 0 in
18:20 55.6 °F 40.5 °F 30.3 in NE 9.8 mph 15.4 mph 57 % 0 in
18:25 55.2 °F 40.8 °F 30.3 in NE 8.5 mph 15.4 mph 58 % 0 in
18:30 54.9 °F 40.6 °F 30.3 in North 7.8 mph 10.5 mph 59 % 0 in
18:35 54.3 °F 41.2 °F 30.3 in NNE 9.2 mph 13 mph 61 % 0 in
18:40 54.1 °F 41.5 °F 30.3 in NE 9.8 mph 13 mph 62 % 0 in
18:45 54 °F 41.2 °F 30.3 in NE 7.8 mph 12.3 mph 62 % 0 in
18:50 53.8 °F 41.4 °F 30.3 in NE 6.5 mph 12.3 mph 63 % 0 in
18:55 53.2 °F 41.2 °F 30.3 in NE 8.1 mph 10.3 mph 63 % 0 in
19:00 53.2 °F 40.8 °F 30.3 in NNE 10.3 mph 10.3 mph 63 % 0 in
19:05 53.1 °F 41.2 °F 30.3 in NE 8.7 mph 10.3 mph 64 % 0 in
19:10 52.9 °F 41.4 °F 30.3 in NE 7.6 mph 11 mph 65 % 0 in
19:16 52.5 °F 41.2 °F 30.3 in NE 8.1 mph 11 mph 65 % 0 in
19:21 52.3 °F 41.4 °F 30.3 in NE 5.4 mph 11 mph 66 % 0 in
19:26 52 °F 40.8 °F 30.3 in ENE 6.3 mph 7.6 mph 66 % 0 in
19:31 51.8 °F 41.2 °F 30.3 in NE 5.8 mph 8.7 mph 67 % 0 in
19:36 51.8 °F 41.5 °F 30.3 in NE 8.5 mph 8.7 mph 68 % 0 in
19:41 51.4 °F 41.2 °F 30.3 in ENE 7.4 mph 8.5 mph 68 % 0 in
19:46 51.3 °F 41.4 °F 30.3 in NE 6.3 mph 7.4 mph 69 % 0 in
19:51 51.1 °F 41.5 °F 30.3 in NE 5.6 mph 7.6 mph 70 % 0 in
19:56 50.9 °F 41.4 °F 30.3 in NE 6.5 mph 7.6 mph 70 % 0 in
20:01 50.7 °F 41.5 °F 30.3 in NE 6.3 mph 7.6 mph 71 % 0 in
20:06 50.5 °F 41.5 °F 30.3 in NE 4.3 mph 7.6 mph 71 % 0 in
20:11 50.2 °F 41.5 °F 30.3 in NE 5.6 mph 7.6 mph 72 % 0 in
20:16 50 °F 41.4 °F 30.3 in NE 4.3 mph 6.5 mph 72 % 0 in
20:21 50 °F 41.7 °F 30.3 in ENE 7.4 mph 8.5 mph 73 % 0 in
20:26 50.2 °F 41.7 °F 30.3 in NE 6 mph 8.5 mph 73 % 0 in
20:31 50 °F 41.7 °F 30.3 in ENE 4.9 mph 8.7 mph 73 % 0 in
20:36 49.8 °F 41.5 °F 30.3 in ENE 6 mph 8.7 mph 73 % 0 in
20:41 49.8 °F 41.5 °F 30.3 in ENE 4 mph 7.6 mph 73 % 0 in
20:46 49.6 °F 41 °F 30.3 in NE 5.8 mph 6.5 mph 72 % 0 in
20:51 49.5 °F 41.2 °F 30.3 in ENE 5.4 mph 6 mph 73 % 0 in
20:56 49.3 °F 41 °F 30.3 in Calm   6 mph 73 % 0 in
21:01 49.1 °F 40.8 °F 30.3 in ENE 4 mph 7.8 mph 73 % 0 in
21:06 49.3 °F 41 °F 30.3 in ENE 5.8 mph 7.8 mph 73 % 0 in
21:11 49.1 °F 40.8 °F 30.4 in ENE 4 mph 7.6 mph 73 % 0 in
21:16 49.1 °F 40.8 °F 30.4 in NE 4.7 mph 7.8 mph 73 % 0 in
21:21 48.9 °F 40.6 °F 30.4 in NNE 4.9 mph 7.8 mph 73 % 0 in
21:26 48.4 °F 40.1 °F 30.4 in NE 5.6 mph 6 mph 73 % 0 in
21:31 48.2 °F 39.9 °F 30.4 in NNE 5.6 mph 6.5 mph 73 % 0 in
21:36 47.8 °F 39.6 °F 30.4 in North 7.4 mph 7.4 mph 73 % 0 in
21:41 47.3 °F 39.7 °F 30.4 in NNE 6.7 mph 7.4 mph 75 % 0 in
21:46 47.1 °F 39.9 °F 30.4 in NNE 7.6 mph 8.9 mph 76 % 0 in
21:51 46.8 °F 39.9 °F 30.4 in NNE 7.8 mph 8.9 mph 77 % 0 in
21:56 46.8 °F 39.9 °F 30.4 in NNE 6 mph 8.9 mph 77 % 0 in
22:01 46.8 °F 39.9 °F 30.4 in NNE 4.3 mph 8.1 mph 77 % 0 in
22:06 46.8 °F 39.9 °F 30.4 in NE 6 mph 7.6 mph 77 % 0 in
22:11 46.8 °F 39.9 °F 30.4 in NE 3.8 mph 7.6 mph 77 % 0 in
22:16 46.8 °F 39.9 °F 30.4 in NE 6.5 mph 8.7 mph 77 % 0 in
22:21 46.8 °F 39.9 °F 30.4 in NNE 5.8 mph 8.9 mph 77 % 0 in
22:26 46.8 °F 39.9 °F 30.4 in NNE 6.5 mph 8.9 mph 77 % 0 in
22:31 46.2 °F 40.8 °F 30.4 in NNE 7.4 mph 8.1 mph 81 % 0 in
22:37 46 °F 40.6 °F 30.4 in North 5.4 mph 8.5 mph 81 % 0 in
22:42 46 °F 40.8 °F 30.4 in North 6.9 mph 8.5 mph 82 % 0 in
22:47 45.9 °F 41.2 °F 30.4 in NNE 7.8 mph 8.7 mph 83 % 0 in
22:52 45.9 °F 41.2 °F 30.4 in NE 5.8 mph 8.7 mph 83 % 0 in
22:57 45.9 °F 40.8 °F 30.4 in NNE 8.5 mph 8.7 mph 83 % 0 in
23:02 45.9 °F 40.8 °F 30.4 in NE 8.5 mph 8.7 mph 83 % 0 in
23:07 45.7 °F 41 °F 30.4 in NNE 6.3 mph 8.5 mph 84 % 0 in
23:12 45.7 °F 41 °F 30.4 in ENE 7.4 mph 8.7 mph 84 % 0 in
23:17 45.7 °F 41 °F 30.4 in NNE 6.5 mph 8.9 mph 84 % 0 in
23:22 45.9 °F 41.2 °F 30.4 in NE 7.6 mph 9.8 mph 84 % 0 in
23:27 46 °F 41.2 °F 30.4 in North 8.1 mph 10.1 mph 83 % 0 in
23:32 46.2 °F 41.4 °F 30.4 in NE 8.5 mph 13 mph 83 % 0 in
23:37 46.6 °F 41.4 °F 30.4 in NNE 8.9 mph 13 mph 82 % 0 in
23:42 46.6 °F 41.2 °F 30.4 in NNE 7.6 mph 10.3 mph 81 % 0 in
23:47 46.6 °F 40.8 °F 30.4 in NE 7.4 mph 12.1 mph 80 % 0 in
23:52 46.8 °F 41 °F 30.4 in NNE 7.8 mph 12.1 mph 80 % 0 in
23:57 46.6 °F 40.3 °F 30.4 in NE 8.5 mph 11.9 mph 79 % 0 in
Le Gheer Warneton
Courtoisie de Weather Underground - 2.25 mb

Mise a jour : 16-12-17 15:55:11
Généré par Cumulus 1.9.4 (1099)